Norfolk, VA

9:51 AM EDT on October 19, 2017 (GMT -0400)
Norfolk International

Weather History for KORF - January, 2013

Change the Weather History Date:

Wednesday, January 16, 2013

  Actual Average Record
Temperature  
Mean Temperature 47 °F 40 °F  
Max Temperature 51 °F 48 °F 73 °F (1877)
Min Temperature 42 °F 33 °F 7 °F (1893)
Degree Days  
Heating Degree Days 18 25  
Month to date heating degree days 307 395  
Since 1 July heating degree days 1407 1574  
Cooling Degree Days 0 0  
Month to date cooling degree days 0 0  
Year to date cooling degree days 0 0  
Moisture  
Dew Point 43 °F    
Average Humidity 93    
Maximum Humidity 100    
Minimum Humidity 86    
Precipitation  
Precipitation 0.10 in 0.11 in 1.23 in (1998)
Month to date precipitation 1.08 1.77  
Year to date precipitation 1.08 1.77  
Snow  
Snow 0.00 in 0.10 in 8.80 in (1939)
Month to date snowfall 0.0 1.3  
Since 1 July snowfall 0.0 2.5  
Snow Depth 0.00 in    
Sea Level Pressure  
Sea Level Pressure 30.02 in    
Wind  
Wind Speed 5 mph (North)    
Max Wind Speed 13 mph    
Max Gust Speed 18 mph    
Visibility 4 miles    
Events Fog , Rain    
T = Trace of Precipitation, MM = Missing Value Source: NWS Daily Summary

Daily Weather History Graph

Daily Weather History Graph

Search for Another Location

Airport or City:

Trip Planner

Search our weather history database for the weather conditions in past years. The results will help you decide how hot, cold, wet, or windy it might be!

Date:

Astronomy

Jan. 16, 2013 Rise Set
Actual Time 7:16 AM EST 5:13 PM EST
Civil Twilight 6:48 AM EST 5:41 PM EST
Nautical Twilight 6:16 AM EST 6:13 PM EST
Astronomical Twilight 5:45 AM EST 6:44 PM EST
Moon 10:00 AM EST (1/16) 10:52 PM EST (1/16)
Length of Visible Light 10h 53m
Length of Day
9h 56m
Waxing Crescent, 28% of the Moon is Illuminated
Jan 16
Waxing Crescent
Jan 18
First Quarter
Jan 26
Full
Feb 3
Last Quarter
Feb 10
New

Hourly Weather History & Observations

Time (EST) Temp. Windchill Dew Point Humidity Pressure Visibility Wind Dir Wind Speed Gust Speed Precip Events Conditions
12:18 AM 46.4 °F 42.4 °F 44.6 °F 93% 30.09 in 0.8 mi NE 8.1 mph - N/A   Overcast
12:51 AM 46.0 °F 43.9 °F 45.0 °F 96% 30.07 in 0.8 mi East 4.6 mph - N/A   Overcast
1:51 AM 46.4 °F 44.3 °F 44.6 °F 93% 30.05 in 0.5 mi ENE 4.6 mph - N/A Fog Fog
2:37 AM 46.4 °F 45.2 °F 44.6 °F 93% 30.01 in 1.0 mi ESE 3.5 mph - N/A   Mist
2:51 AM 46.9 °F - 46.0 °F 97% 30.02 in 1.5 mi Calm Calm - N/A   Overcast
4:34 AM 44.6 °F 40.7 °F 42.8 °F 93% 30.03 in 2.0 mi NNW 6.9 mph - N/A   Overcast
4:46 AM 44.6 °F 40.7 °F 42.8 °F 93% 30.03 in 1.8 mi North 6.9 mph - N/A   Overcast
4:51 AM 44.1 °F 40.1 °F 42.1 °F 93% 30.03 in 2.0 mi NNW 6.9 mph - N/A   Overcast
5:51 AM 42.1 °F 37.7 °F 41.0 °F 96% 30.03 in 2.0 mi NNW 6.9 mph - 0.01 in   Overcast
6:16 AM 42.8 °F 38.6 °F 41.0 °F 93% 30.03 in 3.0 mi North 6.9 mph - N/A   Overcast
7:51 AM 42.1 °F 39.2 °F 41.0 °F 96% 30.03 in 3.0 mi North 4.6 mph - N/A   Overcast
8:17 AM 42.8 °F 40.1 °F 41.0 °F 93% 30.04 in 2.5 mi North 4.6 mph - N/A   Overcast
8:29 AM 42.8 °F 39.3 °F 41.0 °F 93% 30.05 in 1.5 mi North 5.8 mph - 0.00 in Rain Light Rain
8:40 AM 42.8 °F 38.0 °F 41.0 °F 93% 30.05 in 2.5 mi North 8.1 mph - 0.01 in Rain Light Rain
8:51 AM 42.8 °F 39.3 °F 39.2 °F 87% 30.05 in 3.0 mi North 5.8 mph - N/A   Overcast
8:58 AM 42.8 °F 38.6 °F 41.0 °F 93% 30.05 in 2.5 mi NNE 6.9 mph - N/A   Overcast
9:34 AM 42.8 °F 40.1 °F 41.0 °F 93% 30.05 in 1.5 mi North 4.6 mph - 0.03 in Rain Rain
9:38 AM 42.8 °F 38.6 °F 41.0 °F 93% 30.07 in 2.0 mi NNW 6.9 mph - 0.04 in Rain Light Rain
9:51 AM 42.1 °F 39.2 °F 39.9 °F 92% 30.06 in 2.5 mi NNW 4.6 mph - 0.05 in Rain Light Rain
10:01 AM 42.8 °F - 41.0 °F 93% 30.06 in 2.5 mi Calm Calm - 0.00 in   Overcast
10:20 AM 42.8 °F - 39.2 °F 87% 30.06 in 2.5 mi Calm Calm - 0.00 in   Overcast
10:51 AM 43.0 °F - 41.0 °F 93% 30.04 in 6.0 mi Calm Calm - 0.00 in Rain Light Rain
11:43 AM 44.6 °F 43.1 °F 41.0 °F 87% 30.02 in 10.0 mi North 3.5 mph - 0.01 in   Overcast
11:51 AM 44.1 °F 41.5 °F 41.0 °F 89% 30.02 in 9.0 mi North 4.6 mph - 0.01 in   Overcast
12:09 PM 42.8 °F 40.1 °F 41.0 °F 93% 30.03 in 2.0 mi North 4.6 mph - N/A   Overcast
12:38 PM 42.8 °F 38.6 °F 41.0 °F 93% 30.02 in 2.0 mi North 6.9 mph - N/A   Overcast
12:51 PM 42.1 °F 37.7 °F 39.9 °F 92% 30.03 in 3.0 mi NNW 6.9 mph - 0.00 in Rain Light Rain
1:14 PM 42.8 °F 41.1 °F 39.2 °F 87% 30.02 in 3.0 mi NNW 3.5 mph - 0.00 in   Overcast
1:26 PM 42.8 °F 40.1 °F 41.0 °F 93% 30.02 in 3.0 mi NNW 4.6 mph - 0.00 in   Overcast
1:51 PM 43.0 °F - 42.1 °F 97% 29.99 in 3.0 mi Calm Calm - 0.00 in Rain Light Rain
2:07 PM 44.6 °F 40.7 °F 41.0 °F 87% 29.98 in 3.0 mi South 6.9 mph - 0.00 in Rain Light Rain
2:51 PM 45.0 °F 41.2 °F 42.1 °F 90% 29.99 in 3.0 mi SSW 6.9 mph - 0.00 in   Overcast
2:58 PM 44.6 °F 41.4 °F 42.8 °F 93% 29.98 in 3.0 mi SSW 5.8 mph - N/A   Overcast
3:11 PM 44.6 °F 42.2 °F 42.8 °F 93% 29.98 in 3.0 mi SSW 4.6 mph - N/A   Overcast
3:51 PM 46.0 °F 41.9 °F 43.0 °F 89% 29.99 in 3.0 mi SSW 8.1 mph - N/A   Overcast
4:51 PM 46.9 °F - 45.0 °F 93% 29.98 in 3.0 mi South 4.6 mph - 0.01 in   Overcast
5:51 PM 48.0 °F - 46.0 °F 93% 29.96 in 3.0 mi South 8.1 mph - N/A   Overcast
6:03 PM 48.2 °F - 46.4 °F 93% 29.95 in 8.0 mi South 8.1 mph - N/A   Overcast
6:51 PM 48.9 °F - 46.9 °F 93% 29.96 in 7.0 mi SSW 10.4 mph - N/A   Overcast
7:51 PM 50.0 °F - 48.9 °F 96% 29.97 in 10.0 mi SW 8.1 mph - N/A   Overcast
8:38 PM 48.2 °F - 46.4 °F 93% 30.00 in 10.0 mi NNW 5.8 mph - N/A   Overcast
8:51 PM 48.0 °F - 46.0 °F 93% 30.00 in 10.0 mi NNW 5.8 mph - N/A   Overcast
9:51 PM 46.9 °F - 45.0 °F 93% 30.02 in 10.0 mi North 5.8 mph - N/A   Overcast
10:51 PM 46.0 °F 41.9 °F 45.0 °F 96% 29.99 in 10.0 mi NNE 8.1 mph - N/A   Overcast
11:27 PM 46.4 °F 45.2 °F 44.6 °F 93% 30.00 in 6.0 mi SE 3.5 mph - N/A   Overcast
11:36 PM 46.4 °F - 44.6 °F 93% 30.00 in 0.8 mi Calm Calm - N/A   Overcast
11:51 PM 46.0 °F - 45.0 °F 96% 30.00 in 0.5 mi Calm Calm - N/A Fog Fog
11:56 PM 46.4 °F 45.2 °F 44.6 °F 93% 30.00 in 2.0 mi ENE 3.5 mph - N/A   Overcast